Location: *
(55.7500°N, 38.8333°E)
Time: 15:35:09
(UTC+00:00)

Daily predictions for brighter satellites

Satellite Brightness Start Highest point End
(mag) Time Altitude Azimuth Time Altitude Azimuth Time Altitude Azimuth
ARGOS 3.3 17:13:58 10° SSE 17:19:20 86° WSW 17:24:45 10° NNW
Meteor 1-13 Rocket 4.3 17:14:10 10° N 17:19:48 67° ENE 17:25:32 10° SSE
COSMOS 2406 3.9 17:16:36 10° S 17:21:37 33° ESE 17:26:41 10° NE
CZ-2C R/B 2.9 17:20:23 10° SSE 17:25:06 68° ENE 17:29:59 10° NNW
Cosmos 1553 Rocket 4.1 17:19:22 10° S 17:25:33 62° E 17:31:51 10° NNE
Lacrosse 4 Rocket 3.9 17:23:25 10° NW 17:26:06 16° N 17:28:44 10° NE
BREEZE-M DEB (TANK) 3.6 17:22:59 10° SW 17:26:47 42° SSE 17:33:29 10° E
Cosmos 2369 3.8 17:22:37 10° NNW 17:28:18 70° NE 17:33:57 10° SE
Cosmos 1898 Rocket 4.3 17:24:42 10° SSE 17:29:11 29° ESE 17:33:39 10° NE
USA 267 3.3 17:22:56 10° ENE 17:29:26 63° SSE 17:35:55 10° SW
Cosmos 1680 Rocket 4.0 17:27:31 10° NNW 17:32:44 63° WSW 17:37:52 10° SSE
Cosmos 1975 Rocket 4.0 17:30:32 10° N 17:34:33 32° ENE 17:38:33 10° SE
Cosmos 1602 3.9 17:31:42 10° SSW 17:35:31 80° WNW 17:39:23 10° N
Okean 3 4.1 17:33:02 10° NNW 17:37:10 58° W 17:41:17 10° S
SL-08 ROCKET BODY 4.4 17:31:30 10° N 17:37:24 65° ENE 17:43:12 10° SSE
Cosmos 1417 Rocket 4.5 17:31:23 10° S 17:37:29 71° E 17:43:36 10° NNE
H-2A R/B 2.5 17:32:48 10° S 17:37:44 61° WSW 17:42:37 10° NNW
Cosmos 1709 Rocket 4.2 17:34:16 10° N 17:40:19 56° ENE 17:46:22 10° SSE
Geosat 4.1 17:36:55 10° SE 17:41:55 68° NE 17:46:56 10° NNW
ERS-1 Rocket 3.7 17:38:48 10° SE 17:43:26 39° ENE 17:48:06 10° N
Cosmos 1867 4.3 17:38:47 10° NW 17:44:08 49° NNE 17:49:27 10° ESE
Cosmos 1500 3.7 17:40:56 10° SSE 17:44:32 39° E 17:48:09 10° NNE
Cosmos 1900 4.5 17:39:57 10° NW 17:45:00 77° SW 17:49:52 10° SE
Meteor 2-4 Rocket 3.9 17:40:15 10° NNW 17:45:39 71° W 17:50:58 10° S
ASTEX 1 3.6 17:41:50 10° NNE 17:46:44 54° E 17:51:34 10° SSE
USA 186 4.4 17:50:02 10° WSW 17:51:31 14° W 17:53:03 10° NW
S3M 4.0 17:45:19 10° S 17:51:34 73° E 17:57:45 10° NNE
Terra 3.1 17:47:50 11° ESE 17:51:39 27° ENE 17:55:38 10° N
GP-B 3.3 17:48:09 10° N 17:52:33 54° E 17:56:54 10° SSE
Cosmos 1346 Rocket 4.1 17:52:38 13° SE 17:55:03 22° E 17:58:05 10° NE
ATLAS 2AS CENTAUR R/B 3.9 17:49:22 10° W 17:57:13 51° NNW 18:04:48 10° ENE
IGS 5A 4.2 17:54:56 13° SE 17:58:15 39° ENE 18:02:08 10° N
Cosmos 2322 Rocket 3.5 17:53:15 10° NNW 17:58:15 31° NE 18:03:13 10° E
NOSS 3-1 (C) 4.0 17:51:43 10° NW 17:58:50 86° NE 18:06:18 13° SE
Cosmos 2333 Rocket 4.4 17:55:33 10° NNW 17:59:28 19° N 18:03:22 10° NE
Cosmos 2098 Rocket 3.3 17:55:41 10° N 18:00:04 81° ENE 18:05:39 10° SSE
Cosmos 1745 Rocket 4.3 17:53:59 10° NNW 18:00:07 70° W 18:06:12 10° S
Cosmos 1340 4.0 17:59:17 15° SE 18:01:19 22° E 18:04:18 10° NE
CARTOSAT-1 4.4 17:58:22 14° SE 18:01:38 35° ENE 18:05:34 10° N
Cosmos 158 Rocket 4.3 17:56:48 10° NNW 18:02:05 72° WSW 18:07:26 10° SSE
NOSS 6 (F) 4.4 17:59:21 10° SW 18:02:32 81° SE 18:05:27 10° NE
Cosmos 1536 3.1 17:59:20 10° S 18:03:17 51° E 18:07:15 10° NNE
Cosmos 2315 Rocket 4.4 17:57:41 10° SSE 18:03:42 47° E 18:09:43 10° NNE
Cosmos 2360 4.3 17:58:31 10° NNW 18:04:14 76° NE 18:09:05 15° SE
Cosmos 1656 4.3 18:03:41 10° NW 18:09:13 53° WSW 18:14:40 10° S
Cosmos 990 Rocket 4.1 18:06:51 10° S 18:11:54 53° ESE 18:16:57 10° NE
MetOp-B 4.3 18:07:16 10° SSE 18:12:38 78° WSW 18:18:02 10° NNW
Cosmos 1937 Rocket 3.8 18:08:10 10° S 18:13:12 46° ESE 18:18:18 10° NE
Spot 2 Rocket 3.8 18:08:29 10° S 18:13:34 69° WSW 18:18:39 10° NNW
Cosmos 1908 Rocket 3.6 18:09:42 10° S 18:14:08 64° E 18:18:34 10° NNE
Aureole 3 Rocket 2.1 18:11:40 10° S 18:15:01 79° E 18:18:04 10° NNE
EO 1 Del DPAF 4.3 18:12:19 10° NE 18:15:37 27° E 18:17:21 19° SE
Meteor 2-16 Rocket 4.5 18:10:11 10° NNW 18:16:22 86° ENE 18:22:25 10° SSE
SJ 16-02 1.6 18:13:47 10° S 18:18:00 46° ESE 18:22:16 10° NE
Cosmos 1833 Rocket 3.1 18:14:35 10° S 18:19:48 40° ESE 18:25:02 10° NE
SPOT 5 2.9 18:18:41 18° SE 18:21:42 54° ENE 18:26:00 10° N
COSMOS 2455 4.5 18:17:35 10° NW 18:22:51 30° N 18:28:06 10° ENE
Cosmos 2278 3.9 18:18:23 10° NW 18:24:02 72° WSW 18:28:39 16° SSE
Cosmos 2082 Rocket 2.9 18:19:14 10° S 18:24:12 33° ESE 18:29:13 10° NE
Okean 2 Rocket 4.1 18:25:16 20° SE 18:27:16 28° E 18:31:04 10° NNE
Cosmos 1025 Rocket 4.2 18:24:17 10° N 18:28:10 30° ENE 18:30:23 19° ESE
Cosmos 1241 Rocket 4.5 18:22:10 10° SSW 18:28:39 69° SE 18:35:03 10° NE
Cosmos 1697 Rocket 3.1 18:23:15 10° NW 18:28:50 60° WSW 18:33:31 15° SSE
Cosmos 1743 3.8 18:28:37 22° ESE 18:29:55 27° E 18:33:11 10° NNE
DMSP B5D2-2 4.1 18:25:19 10° NNE 18:30:37 89° ESE 18:35:54 10° SSW
SL-16 R/B 2.9 18:25:28 10° NNW 18:30:57 45° NE 18:35:05 17° ESE
Meteor 1-11 Rocket 3.9 18:25:58 10° SSW 18:31:56 85° WNW 18:37:58 10° NNE
SPOT 1/Viking Rocket 3.6 18:28:36 16° SSE 18:32:49 86° ENE 18:38:05 10° NNW
Abrixas rocket 3.5 18:31:27 10° SW 18:33:51 21° S 18:33:54 21° S
CZ-2C R/B 2.6 18:29:22 10° NNE 18:34:36 62° ESE 18:39:55 10° S
Cosmos 1066 Rocket 4.2 18:30:25 10° NNW 18:35:53 82° WSW 18:40:18 15° S
USA 32 4.0 18:34:37 10° N 18:39:55 84° E 18:43:58 17° S
Cosmos 405 3.9 18:36:53 10° N 18:40:13 35° ENE 18:41:32 26° ESE
Sich 1 Rocket 3.7 18:36:57 17° S 18:40:19 58° E 18:44:44 10° NNE
ADEOS Rocket 3.5 18:35:21 10° NNE 18:41:09 64° WNW 18:47:32 10° SW
Okean 2 3.4 18:37:22 10° N 18:41:30 69° ENE 18:43:46 25° SSE
Resurs 01 Rocket 3.7 18:38:45 10° SSW 18:42:23 24° W 18:46:01 10° NW
Cosmos 1666 2.6 18:40:03 19° S 18:42:41 66° E 18:46:30 10° NNE
Cosmos 468 4.5 18:39:57 10° NNW 18:45:14 89° ENE 18:48:34 23° SSE
Cosmos 2298 Rocket 4.4 18:41:17 16° S 18:45:14 44° ESE 18:50:17 10° NE
Cosmos 2360 Rocket 3.4 18:41:56 10° NNW 18:47:04 34° NE 18:51:24 13° E
Cosmos 2219 Rocket 4.1 18:47:38 10° NNW 18:52:02 23° NNE 18:56:24 10° ENE
Cosmos 1980 Rocket 2.4 18:47:08 10° NW 18:52:44 67° WSW 18:56:23 22° SSE
Cosmos 1782 Rocket 3.5 18:49:15 14° S 18:53:04 86° ESE 18:57:31 10° NNE
CZ-4C R/B 3.9 18:54:29 15° E 18:54:29 15° E 18:57:03 10° ENE
Meteor 1-21 4.4 18:49:28 10° N 18:55:05 59° ENE 18:58:16 25° SE
USA 229 DEB 4.2 18:50:11 10° NW 18:57:08 55° SW 19:02:06 21° SSE
USA 229 4.2 18:50:17 10° NW 18:57:14 55° SW 19:02:12 21° SSE
Cosmos 1842 3.6 18:54:11 10° N 18:58:02 49° ENE 18:59:26 33° SE
Landsat 7 4.2 18:55:11 18° S 18:58:37 61° WSW 19:03:22 10° NNW
SL-24 R/B 4.0 18:55:49 10° NNE 18:59:42 49° E 19:00:55 34° SSE
NOSS 3-1 (A) 4.1 18:53:27 10° NW 19:00:39 74° SW 19:06:08 23° SE
Cosmos 1048 Rocket 4.0 19:00:09 10° NNW 19:05:17 77° WSW 19:08:05 28° SSE
COSMOS 2406 3.7 18:59:59 10° SW 19:05:39 63° NW 19:11:23 10° NNE
Lacrosse 4 Rocket 3.2 19:02:32 10° NNW 19:06:08 26° NNE 19:09:09 13° E
Cosmos 1707 4.2 19:04:48 10° N 19:08:03 25° ENE 19:09:03 22° E
APEX 4.0 19:04:41 10° NW 19:10:25 67° NE 19:12:39 31° ESE
Cosmos 1898 Rocket 4.0 19:05:46 10° SW 19:10:58 61° WNW 19:16:10 10° NNE
Cosmos 2151 Rocket 4.0 19:09:35 33° SE 19:11:03 46° E 19:15:21 10° NNE
Cosmos 1975 2.9 19:11:11 38° SSE 19:12:24 55° E 19:16:20 10° NNE
Cosmos 1975 Rocket 4.2 19:08:21 10° NNW 19:12:31 40° W 19:15:45 15° SSW
USA 267 3.3 19:06:08 10° ENE 19:12:42 85° N 19:19:16 10° W
MINOTAUR IV R/B 4.5 19:08:42 10° SSW 19:13:12 80° ESE 19:17:41 10° NE
Thor Agena Rocket 3.5 19:10:37 10° NNE 19:15:49 71° ESE 19:19:07 23° S
Cosmos 2237 Rocket 4.4 19:14:22 10° NNW 19:18:33 20° NNE 19:22:44 10° ENE
ARGOS Delta rocket 4.4 19:17:26 30° SE 19:19:58 56° ENE 19:25:21 10° N
Cosmos 1378 3.0 19:17:03 10° NNW 19:20:50 88° ENE 19:21:53 46° SSE
ERS-1 Rocket 3.9 19:18:42 17° SSW 19:22:14 42° W 19:27:02 10° NNW
Cosmos 2154 Rocket 4.0 19:16:40 10° N 19:22:59 77° ENE 19:26:19 30° SSE
Cosmos 1269 Rocket 4.0 19:20:37 10° NNW 19:25:58 87° ENE 19:28:18 35° SSE
Meteor 2-15 4.5 19:24:01 28° S 19:27:21 65° E 19:33:25 10° NNE
Cosmos 1867 3.8 19:22:33 10° NW 19:27:57 60° SW 19:30:15 33° SSE
Nadezhda 1 Rocket 4.0 19:25:40 29° SSE 19:28:49 61° E 19:34:50 10° NNE
Terra 2.1 19:26:43 28° S 19:29:07 61° WSW 19:33:52 10° NNW
Okean 1 Rocket 3.8 19:30:04 33° ESE 19:30:37 34° E 19:34:34 10° NNE
Landsat 4 3.9 19:27:10 10° NNE 19:30:53 50° ESE 19:31:16 48° SE
Cosmos 1346 Rocket 3.7 19:28:07 14° SW 19:31:11 45° WNW 19:34:56 10° N
Helios 1A 3.5 19:31:13 36° ESE 19:32:24 47° ENE 19:36:27 10° N
Cosmos 1125 Rocket 3.7 19:32:11 35° SSE 19:33:56 50° ESE 19:39:02 10° NE
Cosmos 2074 Rocket 4.3 19:28:59 10° NNW 19:35:13 63° W 19:39:13 23° SSW
Cosmos 1340 3.7 19:34:02 16° SW 19:36:44 43° WNW 19:40:22 10° N
Mayak -0.4 19:33:52 10° NNE 19:37:40 32° E 19:37:50 32° E
Cosmos 1300 Rocket 3.4 19:36:50 41° S 19:38:19 79° E 19:42:42 10° NNE
MOS 1 Rocket 3.6 19:33:10 10° NNE 19:38:35 89° ESE 19:41:48 26° SSW
Cosmos 494 Rocket 4.0 19:34:10 10° NNW 19:39:19 75° WSW 19:41:18 38° S
Cosmos 2322 Rocket 2.1 19:37:18 10° NW 19:42:59 86° WSW 19:45:18 37° SSE
Cosmos 2184 Rocket 4.4 19:37:05 10° NNW 19:43:07 57° W 19:46:55 23° SSW
Cosmos 2333 Rocket 3.5 19:40:19 10° NNW 19:45:28 34° NE 19:49:37 15° E
Iridium 96 4.2 19:45:54 66° NW 19:45:54 66° NW 19:48:46 10° N
SL-27 R/B 2.3 19:47:42 71° S 19:48:00 79° ESE 19:51:40 10° NNE
ATLAS 2AS CENTAUR R/B 3.7 19:41:47 10° WNW 19:49:38 53° NNE 19:57:01 10° E
SJ 16-02 3.1 19:52:47 10° WSW 19:56:46 32° NW 20:00:49 10° NNE
SPOT 5 4.4 19:57:56 16° SW 20:00:08 24° W 20:03:43 10° NW
Cosmos 372 Rocket 4.2 19:59:23 19° SW 20:03:11 72° WNW 20:08:28 10° NNE
Cosmos 1833 Rocket 3.4 19:58:08 10° SW 20:03:39 54° NW 20:09:12 10° NNE
Okean 2 Rocket 4.1 20:02:37 21° SW 20:05:12 43° WNW 20:09:28 10° N
Okean 1-7 Rocket 3.8 20:00:57 10° N 20:05:19 58° ENE 20:06:07 49° ESE
Cosmos 2366 rocket 4.2 19:59:23 10° N 20:05:35 59° ENE 20:08:06 36° SE
Cosmos 1743 4.1 20:03:42 21° WSW 20:05:37 35° WNW 20:09:10 10° N
Cosmos 1025 Rocket 3.9 20:01:47 10° NNW 20:05:56 42° W 20:07:16 32° SW
Cosmos 1892 Rocket 3.8 20:02:35 10° N 20:07:01 58° ENE 20:07:53 48° ESE
Cosmos 2341 Rocket 4.0 20:00:40 10° NNW 20:07:06 88° W 20:09:47 38° S
Spot 4 3.8 20:06:14 48° S 20:07:35 81° WSW 20:12:27 10° NNW
Cosmos 2082 Rocket 2.6 20:02:24 10° SW 20:08:00 64° NW 20:13:42 10° NNE
COSMOS 2455 3.4 20:04:05 10° NW 20:10:01 54° NE 20:13:51 22° ESE
Cosmos 2251 Rocket 3.6 20:09:07 10° NNW 20:14:29 73° ENE 20:16:14 43° SE
CZ-2C R/B 4.3 20:10:07 10° N 20:14:38 30° WNW 20:19:13 10° WSW
SL-16 R/B 2.6 20:09:42 10° NW 20:15:11 51° WSW 20:16:56 37° SSW
Meteor 2-9 Rocket 4.4 20:13:02 31° SSW 20:15:59 78° WNW 20:21:54 10° NNE
Meteor 1-24 Rocket 4.4 20:13:46 10° N 20:18:50 42° ENE 20:20:44 31° ESE
Cosmos 2237 4.2 20:15:38 10° NW 20:21:24 89° NE 20:23:19 44° SE
YAOGAN 11 4.1 20:27:40 61° SSE 20:28:28 89° W 20:33:05 10° NNW
ALOS 2 2.5 20:30:40 64° SE 20:31:18 81° ENE 20:35:43 10° NNW
Cosmos 2360 Rocket 2.1 20:25:56 10° NW 20:31:35 76° WSW 20:33:09 49° SSE
SL-8 Rocket 4.0 20:26:20 10° NNW 20:32:41 82° W 20:34:59 42° S
Meteor 1-4 Rocket 2.9 20:28:59 10° N 20:32:44 56° ENE 20:32:44 56° ENE
Meteor 2-5 Rocket 3.8 20:28:03 10° NNW 20:33:38 69° ENE 20:35:19 45° SE
Cosmos 1980 Rocket 4.3 20:32:42 10° WNW 20:35:43 15° W 20:38:09 12° SW
Cosmos 2219 Rocket 2.6 20:31:39 10° NNW 20:37:12 56° NE 20:39:43 31° ESE
COSMOS 2428 3.1 20:31:36 10° NNW 20:37:15 58° NE 20:39:49 32° ESE
Cosmos 2181 Rocket 3.9 20:36:48 44° S 20:38:52 78° E 20:45:04 10° NNE
Cosmos 864 Rocket 4.4 20:32:42 10° NNW 20:38:54 88° E 20:40:57 45° SSE
Genesis I 4.2 20:35:20 10° NW 20:39:14 45° NNE 20:40:32 32° ENE
SL-19 R/B 4.1 20:36:40 10° NNE 20:39:50 76° NE 20:39:50 76° NE
CZ-4C R/B 2.2 20:39:37 49° S 20:40:56 63° SE 20:47:12 10° NE
In-Cosmos 22 4.0 20:38:24 10° NNW 20:43:46 77° W 20:45:03 52° S
Cosmos 1707 3.5 20:40:27 10° NNW 20:44:06 41° W 20:44:13 41° W
Lacrosse 4 Rocket 1.2 20:41:07 10° NW 20:45:20 86° SW 20:45:26 84° S
Cosmos 1544 3.6 20:45:16 50° W 20:45:24 51° WNW 20:48:57 10° N
Helios 1B rocket 2.8 20:42:19 10° NNE 20:46:14 51° E 20:46:14 51° E
Cosmos 389 Rocket 2.7 20:43:23 10° NNW 20:46:36 69° NNW 20:46:36 69° NNW
Cosmos 1626 4.0 20:44:21 10° NNE 20:47:16 21° ENE 20:47:46 21° ENE
BREEZE M DEB (TANK) 3.7 20:47:29 22° WSW 20:50:08 51° S 21:03:07 10° ESE
Cosmos 2333 4.1 20:45:46 10° NW 20:51:25 86° NE 20:53:06 48° SE
USA 267 3.2 20:49:11 10° E 20:55:44 86° NNE 21:02:19 10° WNW
TIMED 4.3 20:51:26 10° NNW 20:55:50 80° WSW 20:56:05 76° SSW
NOSS 3-4 (A) 4.2 20:49:24 10° NW 20:55:58 59° NNE 21:03:11 10° ESE
NOSS 3-4 (C) 4.2 20:49:31 10° NW 20:56:04 59° NNE 21:03:17 10° ESE
Spot 1 3.8 20:57:14 79° SE 20:57:28 86° ENE 21:01:36 10° NNW
CZ-4 R/B 4.4 20:57:46 10° NNE 21:02:35 46° E 21:03:11 44° ESE
NOSS 2-2 (E) 4.4 20:57:32 10° NW 21:02:57 87° NE 21:06:52 28° SE
Cosmos 2237 Rocket 3.1 20:58:38 10° NNW 21:04:05 44° NE 21:07:55 19° ESE
Cosmos 1441 Rocket 3.6 21:04:55 53° W 21:05:12 55° WNW 21:09:07 10° N
Iridium 51 4.2 21:05:42 72° N 21:05:42 72° N 21:09:07 10° N
Cosmos 2322 3.7 20:59:49 10° NW 21:05:32 69° WSW 21:06:49 52° S
Cosmos 407 Rocket 4.0 21:01:58 10° NNW 21:07:08 54° NE 21:09:05 35° ESE
Terra 4.3 21:06:35 10° W 21:07:53 11° W 21:09:11 10° WNW
Helios 1A 4.4 21:07:51 26° WSW 21:08:11 26° W 21:11:45 10° NW
Cosmos 2218 Rocket 4.3 21:02:16 10° NNW 21:08:31 58° W 21:10:41 39° SSW
Okean 1 Rocket 4.2 21:07:14 29° WSW 21:08:31 36° WNW 21:12:34 10° N
Cosmos 1544 Rocket 3.5 21:09:02 69° SE 21:09:16 71° E 21:13:43 10° NNE
Cosmos 1674 2.8 21:08:51 10° NNW 21:12:26 73° NW 21:12:26 73° NW
Mayak -0.1 21:09:26 10° N 21:13:20 38° WNW 21:14:25 32° W
SL-16 R/B 3.9 21:08:50 10° NNW 21:13:50 30° NNE 21:18:48 10° E
Cosmos 1455 Rocket 2.8 21:13:35 79° S 21:13:52 90° N 21:18:16 10° NNE
ERS-2 2.3 21:14:10 68° NE 21:14:10 68° NE 21:17:36 10° NNW
COSMOS 2487 2.9 21:17:31 58° NNW 21:17:31 58° NNW 21:20:37 10° NNE
Celestis-02/Orion 38 4.4 21:19:30 57° SSE 21:20:33 82° SW 21:25:41 10° NW
SL-16 R/B 4.0 21:16:06 10° ESE 21:21:17 31° NE 21:26:35 10° N
H-2A R/B 4.4 21:23:05 11° E 21:25:42 18° NE 21:28:34 10° N
Cosmos 2322 Rocket 3.8 21:22:18 10° NW 21:26:17 20° W 21:27:05 20° WSW
NOSS 2-2 (D) 4.3 21:22:20 10° NW 21:27:42 83° SW 21:31:09 32° SE
NOSS 0 Rocket 4.0 21:21:34 10° NW 21:27:46 78° NE 21:30:36 34° SE
Meteor 1-15 Rocket 4.5 21:26:16 41° SW 21:28:07 63° WNW 21:33:46 10° N
KORONAS-FOTON 4.1 21:24:19 10° NNW 21:27:55 60° WNW 21:27:55 60° WNW
Cosmos 1833 4.2 21:27:04 53° S 21:28:16 67° ESE 21:33:57 10° NE
Cosmos 1805 3.3 21:28:43 75° ENE 21:28:43 75° ENE 21:32:27 10° NNE
Cosmos 1626 Rocket 3.5 21:25:20 10° NNW 21:29:45 67° W 21:29:57 65° WSW
Cosmos 1758 Rocket 4.0 21:25:32 10° N 21:29:51 51° ENE 21:30:30 46° ESE
Cosmos 1766 3.2 21:30:11 83° NE 21:30:11 83° NE 21:34:07 10° NNE
Cosmos 2333 Rocket 2.1 21:24:36 10° NW 21:30:17 75° WSW 21:31:35 53° S
Nadezhda 3 Rocket 4.1 21:28:46 45° SSE 21:30:35 66° E 21:36:42 10° NNE
Meteor 1-29 3.5 21:28:59 10° NNE 21:31:44 56° N 21:31:44 56° N
Cosmos 1825 Rocket 4.0 21:29:28 10° N 21:33:51 52° ENE 21:34:34 47° ESE
NOSS 2-1 (C) 3.2 21:36:26 77° NW 21:36:27 77° NW 21:40:46 10° NE
Cosmos 614 Rocket 4.0 21:31:44 10° NNW 21:37:01 78° ENE 21:38:28 48° SE
Cosmos 1602 Rocket 3.6 21:34:02 10° NNW 21:38:30 67° W 21:38:45 65° WSW
Meteor 2-12 Rocket 4.3 21:33:20 10° NNW 21:39:26 89° W 21:41:16 48° S
NOSS 2-1 (D) 3.3 21:39:18 72° NW 21:39:27 73° NW 21:43:46 10° NE
ATLAS 2AS CENTAUR R/B 2.9 21:33:24 10° NW 21:41:22 88° SW 21:46:33 22° SE
Cosmos 1437 Rocket 3.2 21:38:48 10° NNW 21:42:32 53° W 21:42:32 53° W
Cosmos 1953 3.6 21:48:16 30° E 21:48:24 30° E 21:51:54 10° NNE
Cosmos 1190 Rocket 3.9 21:44:51 10° NNW 21:50:14 88° WSW 21:51:34 52° SSE
Cosmos 405 Rocket 3.2 21:53:03 48° WNW 21:53:03 48° WNW 21:56:43 10° N
Cosmos 2082 Rocket 4.3 21:48:37 10° W 21:53:13 24° NNW 21:57:50 10° NNE
COSMOS 2455 3.0 21:50:12 10° NW 21:56:02 50° WSW 21:56:57 46° SSW
SL-16 R/B 4.4 21:56:56 10° W 21:57:59 10° W 21:58:47 10° W
Cosmos 2056 Rocket 4.4 21:59:31 33° SE 22:00:37 36° ESE 22:05:34 10° NE
USA 215 4.1 21:55:12 10° ENE 22:00:52 30° SE 22:01:35 30° SE
Meteor 1-21 Rocket 4.2 21:55:13 10° NNW 22:00:53 81° ENE 22:02:46 44° SSE
Meteor 1-22 Rocket 4.3 21:59:41 48° SSW 22:01:22 77° WNW 22:07:22 10° NNE
Meteor 1-24 Rocket 4.2 21:57:01 10° NNW 22:01:58 40° W 22:02:54 37° WSW
Cosmos 1605 Rocket 4.1 21:56:54 10° N 22:03:17 74° ENE 22:06:02 36° SSE
Cosmos 1535 Rocket 4.5 21:58:23 10° NNW 22:04:45 80° W 22:06:57 44° S
Cosmos 1023 Rocket 4.4 22:00:06 10° NNW 22:05:24 87° WSW 22:06:47 51° SSE
IKONOS-2 4.5 22:05:26 64° SE 22:05:59 76° ENE 22:10:14 10° NNW
Cosmos 1821 Rocket 4.3 22:03:01 10° NNW 22:09:13 55° W 22:11:06 41° SW
Resurs 1-4 Rocket 3.8 22:08:48 10° NE 22:13:00 23° E 22:15:21 18° SE
Cosmos 2227 Rocket 3.7 22:12:57 20° SE 22:14:38 24° ESE 22:19:01 10° NE
Cosmos 2360 Rocket 3.9 22:11:10 10° WNW 22:14:42 17° W 22:14:53 17° WSW
PSLV R/B 3.5 22:12:38 10° NNE 22:17:04 80° ESE 22:17:42 64° S
Cosmos 1934 Rocket 3.9 22:11:01 10° NNW 22:17:04 69° W 22:18:56 45° SSW
Cosmos 1624 Rocket 4.5 22:17:11 41° SE 22:18:18 48° ESE 22:23:20 10° NE
Cosmos 1470 2.6 22:18:36 83° ESE 22:18:37 83° E 22:22:32 10° NNE
Cosmos 2219 Rocket 2.8 22:15:53 10° NW 22:21:00 37° WSW 22:21:24 37° WSW
COSMOS 2428 3.3 22:16:10 10° NW 22:21:20 37° WSW 22:21:47 36° WSW
Helios 1B rocket 4.1 22:18:01 10° N 22:21:25 25° WNW 22:22:33 22° W
Cosmos 2058 Rocket 4.1 22:20:23 33° SE 22:21:27 39° E 22:25:40 10° NNE
NOSS 2-1 (E) 4.2 22:20:30 32° W 22:21:56 49° NNW 22:26:27 10° NE
Cosmos 1626 2.8 22:19:12 10° NNW 22:22:19 44° WNW 22:22:19 44° WNW
Lacrosse 4 Rocket 3.7 22:20:56 10° WNW 22:21:44 13° W 22:21:44 13° W
Cosmos 1271 Rocket 3.5 22:20:46 10° N 22:24:28 45° ENE 22:25:16 39° ESE
SL-14 R/B 4.2 22:22:22 10° NNW 22:25:56 37° W 22:25:56 37° W
CZ-4C R/B 3.9 22:27:45 42° W 22:27:45 42° W 22:30:57 10° NNW
Alouette 2 Rocket 4.2 22:28:10 42° SE 22:29:07 50° E 22:34:27 10° NNE
CZ-4C R/B 3.0 22:24:45 13° W 22:29:41 55° NNW 22:36:21 10° NE
Cosmos 2297 Rocket 3.4 22:28:20 25° SE 22:30:09 30° ESE 22:35:02 10° NE
Cosmos 1184 Rocket 3.1 22:33:08 63° NNE 22:33:08 63° NNE 22:35:58 10° NNE
Cosmos 1733 4.1 22:36:21 36° WNW 22:36:32 36° WNW 22:40:05 10° N
Cosmos 1953 Rocket 3.6 22:32:31 10° NNW 22:36:55 63° W 22:37:25 58° SW
SeaSat 1 4.3 22:34:11 10° ENE 22:37:45 20° ESE 22:39:32 16° SE
Cosmos 1328 3.9 22:34:27 10° N 22:38:25 72° ENE 22:39:04 58° SE
USA 267 3.2 22:32:36 10° SE 22:39:03 60° SSW 22:45:32 10° WNW
Cosmos 1371 Rocket 4.0 22:38:50 48° S 22:40:17 76° ESE 22:45:37 10° NNE
Cosmos 1758 3.6 22:44:05 50° W 22:44:33 53° WNW 22:48:36 10° N
NOSS 3-4 (A) 3.7 22:40:24 10° NW 22:47:09 65° SW 22:54:03 12° SSE
NOSS 3-4 (C) 3.7 22:40:31 10° NW 22:47:16 65° SW 22:54:21 11° SSE
Cosmos 1140 Rocket 3.8 22:42:19 10° NW 22:47:20 47° WSW 22:48:07 43° SW
ERS-2 4.4 22:48:48 14° WNW 22:48:48 14° WNW 22:50:06 10° NW
Cosmos 2237 Rocket 2.4 22:42:48 10° NW 22:48:19 52° WSW 22:49:41 42° SSW
Cosmos 407 Rocket 4.3 22:44:18 10° NW 22:48:57 33° WSW 22:49:15 32° WSW
Cosmos 1980 4.0 22:45:07 10° NW 22:50:32 47° WSW 22:51:42 41° SSW
ADEOS II 4.3 22:47:23 10° NE 22:50:56 18° E 22:54:29 10° SE
Timation 2 Rocket 4.3 22:47:48 30° SW 22:51:17 69° NW 22:57:47 10° NE
Cosmos 1726 Rocket 3.5 22:54:42 55° SSW 22:55:37 79° WNW 23:00:04 10° N
Cosmos 1954 Rocket 4.2 22:51:53 10° NW 22:57:02 50° WSW 22:58:09 43° SSW
Cosmos 1452 Rocket 4.4 22:55:39 28° SSE 22:57:43 40° ESE 23:02:38 10° NE
SL-16 R/B 2.1 22:52:56 10° NW 22:58:39 89° SW 23:03:05 17° SSE
CZ-2D R/B 2.8 22:54:14 10° NNE 22:59:32 48° E 23:02:13 27° SSE
Cosmos 1703 3.1 22:56:12 10° NNW 23:00:09 83° W 23:00:45 62° S
NOSS 3-3 (C) 4.0 22:57:36 36° SW 23:00:19 76° SE 23:07:17 10° NE
NOSS 3-3 (A) 4.0 22:57:36 36° SW 23:00:20 77° SE 23:07:19 10° NE
H-2A R/B 1.9 23:00:11 50° S 23:01:14 82° WSW 23:05:26 10° NNW
SL-08 R/B 4.0 23:00:29 16° SE 23:04:17 57° ENE 23:09:10 10° N
Cosmos 2173 Rocket 4.1 22:58:01 10° N 23:04:19 80° E 23:08:32 23° SSE
SL-16 R/B 2.4 23:01:12 30° S 23:04:28 76° WSW 23:10:41 10° NNW
CZ-4B R/B 3.3 23:01:46 10° NNE 23:06:32 74° WNW 23:08:05 43° SW
Cosmos 1727 Rocket 4.0 23:05:13 33° S 23:08:22 87° E 23:14:45 10° NNE
Cosmos 2061 Rocket 4.3 23:02:56 10° N 23:09:21 69° ENE 23:14:44 15° SSE
CZ-4B R/B 3.6 23:09:32 10° ESE 23:12:18 25° ENE 23:15:08 10° N
Cosmos 2333 Rocket 3.8 23:10:06 10° WNW 23:13:34 17° W 23:13:34 17° W
Cosmos 1726 2.1 23:14:26 54° S 23:15:10 77° E 23:18:57 10° NNE
Cosmos 2228 3.4 23:16:00 41° WSW 23:17:01 50° WNW 23:21:15 10° N
ERBS 2.1 23:17:26 76° SW 23:17:39 84° SSE 23:21:03 10° ENE
Cosmos 2082 4.5 23:16:49 25° SSE 23:19:42 43° ESE 23:25:06 10° NE
Cosmos 2219 3.2 23:18:02 35° SSW 23:20:38 89° ESE 23:26:27 10° NE
Meteor 1-11 4.2 23:15:27 10° NNW 23:21:02 68° W 23:23:45 31° S
SAR-Lupe-4 3.9 23:22:59 46° WSW 23:23:03 46° WSW 23:26:34 10° NNW
Cosmos 1953 3.2 23:23:58 31° W 23:24:46 35° WNW 23:28:27 10° N
Cosmos 1812 Rocket 4.2 23:23:32 26° SSE 23:25:42 50° E 23:29:56 10° NNE
ATLAS 2AS CENTAUR R/B 3.6 23:24:58 10° WNW 23:31:37 32° WSW 23:33:53 27° SSW
AQUA 4.0 23:28:48 10° NNE 23:33:36 70° ESE 23:36:02 29° S
Cosmos 2016 Rocket 3.9 23:27:40 10° NNW 23:33:55 89° E 23:38:52 16° S
Cosmos 1908 3.1 23:33:11 44° S 23:34:21 89° E 23:38:13 10° NNE
RESURS DK-1 3.5 23:30:58 10° NNW 23:34:59 45° NE 23:38:59 10° ESE
Cosmos 1242 Rocket 2.3 23:32:26 10° NNW 23:35:55 74° WSW 23:36:42 49° S
NPP 3.6 23:30:32 10° NNE 23:35:59 83° ESE 23:38:57 28° SSW
Cosmos 1850 Rocket 4.1 23:31:28 10° NW 23:36:33 52° WSW 23:39:03 28° S
Cosmos 2100 Rocket 4.1 23:33:14 10° NNW 23:39:30 61° W 23:43:23 24° SSW
MOZ.5/SAFIR/RUBIN 5/SL-8 4.3 23:38:15 33° SW 23:39:39 41° W 23:44:12 10° NNW
Cosmos 1076 Rocket 3.4 23:37:21 10° NNW 23:41:38 83° W 23:43:57 26° S
Cosmos 2056 Rocket 4.0 23:39:51 27° WSW 23:42:38 52° NW 23:47:59 10° NNE
Cosmos 2233 Rocket 4.5 23:36:37 10° N 23:42:44 60° ENE 23:48:47 10° SSE
UNK 4.4 23:43:03 32° SW 23:44:18 38° W 23:48:42 10° NNW
USA 215 3.3 23:38:09 10° ENE 23:44:41 68° SSE 23:48:55 24° SW
Cosmos 1689 Rocket 3.9 23:42:07 10° SE 23:44:51 32° ENE 23:47:39 10° N
Cosmos 2151 3.9 23:43:18 10° N 23:47:24 46° ENE 23:51:27 10° SE
Cosmos 1802 Rocket 4.0 23:42:21 10° NNW 23:48:26 66° W 23:52:48 20° S
Cosmos 1741 Rocket 4.4 23:43:36 10° NW 23:48:40 45° WSW 23:51:20 25° SSW
Cosmos 1459 Rocket 4.1 23:44:40 10° NNW 23:50:41 55° W 23:54:23 23° SSW
Cosmos 1300 3.4 23:50:09 21° SSE 23:52:24 51° E 23:56:08 10° NNE
Resurs 1-4 Rocket 2.1 23:48:07 10° NNE 23:53:23 74° WNW 23:56:25 26° SSW
USA 40 PKM 4.3 23:52:08 10° W 23:56:26 78° N 23:59:46 10° E
